EW0214 Weather Reports


time (UTC)temp
C
wind
direction
speed
KPH
gust
KPH
rain 1hr
cm
rain 24hr
cm
rain mn
cm
humidity
%
barometer
mb
20260502130525 10 338 0.0 0.0 0.00 2.69 0.00 89 1021.6
20260502123757 9 338 0.0 1.6 0.00 3.71 0.00 89 1021.3
20260502123027 9 338 0.0 1.6 0.00 3.71 0.00 88 1021.3
20260502122520 9 338 0.0 1.6 0.00 3.71 0.00 88 1021.1
20260502122013 9 338 0.0 3.2 0.00 3.71 0.00 88 1021.0
20260502121507 9 338 0.0 3.2 0.00 3.71 0.00 88 1020.9
20260502121003 9 338 0.0 0.0 0.00 3.71 0.00 88 1020.9
20260502120457 9 338 0.0 0.0 0.00 3.71 0.00 88 1020.7
20260502115445 9 338 0.0 0.0 0.00 3.71 0.00 88 1020.5
20260502114938 9 338 0.0 0.0 0.00 3.71 0.00 88 1020.4
20260502114432 9 338 0.0 0.0 0.00 3.71 0.00 88 1020.3
20260502113926 9 338 0.0 0.0 0.00 3.71 0.00 88 1020.3
20260502113420 9 338 0.0 0.0 0.00 3.71 0.00 88 1020.2
20260502113145 9 338 0.0 0.0 0.00 3.71 0.00 88 1020.2
20260502112408 10 338 0.0 0.0 0.00 3.71 0.00 88 1020.2
20260502111902 10 338 0.0 0.0 0.00 3.71 0.00 88 1020.2
20260502111357 10 338 0.0 0.0 0.00 3.71 0.00 88 1020.2
20260502111120 10 338 0.0 0.0 0.00 3.71 0.00 88 1020.1
20260502110343 10 338 0.0 0.0 0.00 3.71 0.00 88 1020.1
20260502105838 10 338 0.0 0.0 0.00 3.71 0.00 88 1020.1
20260502105331 10 338 0.0 0.0 0.00 3.71 0.00 88 1020.0
20260502104825 10 338 0.0 0.0 0.00 3.71 0.00 88 1020.0
20260502104320 10 338 0.0 0.0 0.00 3.71 0.00 88 1019.9
20260502103814 10 338 0.0 0.0 0.00 3.71 0.00 88 1019.8
20260502103308 10 338 0.0 0.0 0.00 3.71 0.00 88 1019.6
20260502102802 10 338 0.0 0.0 0.00 3.71 0.00 88 1019.6
20260502102256 10 338 0.0 0.0 0.00 3.71 0.00 88 1019.4
20260502101751 10 338 0.0 0.0 0.00 3.71 0.00 88 1019.3
20260502101243 10 338 0.0 0.0 0.00 3.71 0.00 88 1019.3
20260502101009 10 338 0.0 0.0 0.00 3.71 0.00 88 1019.2
20260502100231 10 338 0.0 0.0 0.00 3.71 0.00 88 1019.1
20260502091134 10 336 1.6 6.4 0.00 3.71 0.00 88 1018.4
20260502091129 10 336 1.6 6.4 0.00 3.71 0.00 88 1018.6
20260502090352 10 336 1.6 4.8 0.00 3.71 0.00 88 1018.5
20260502071414 11 333 0.0 4.8 0.00 3.71 0.00 88 1018.4
20260502070908 11 333 0.0 4.8 0.00 3.71 0.00 88 1018.4
20260502070633 11 333 0.0 0.0 0.00 3.71 0.00 87 1018.3
20260502065856 11 334 0.0 0.0 0.00 3.71 0.00 87 1018.2
20260502065350 11 334 0.0 0.0 0.00 3.71 0.00 87 1018.2
20260502064845 11 334 0.0 0.0 0.00 3.71 0.00 87 1018.2
20260502064611 11 334 0.0 3.2 0.00 3.71 0.00 87 1018.3
20260502063840 11 334 0.0 3.2 0.00 3.71 0.00 87 1018.3
20260502063339 11 334 0.0 3.2 0.00 3.71 0.00 87 1018.4
20260502062836 11 334 0.0 3.2 0.00 3.71 0.00 87 1018.4
20260502062335 11 334 0.0 3.2 0.00 3.71 0.00 87 1018.4
20260502061840 11 333 0.0 3.2 0.00 3.71 0.00 87 1018.5
20260502061835 11 334 0.0 3.2 0.00 3.71 0.00 87 1018.4
20260502060834 11 334 0.0 0.0 0.00 3.71 0.00 87 1018.5
20260502060333 11 334 0.0 0.0 0.00 3.71 0.00 87 1018.5
20260502055832 11 334 0.0 0.0 0.00 3.71 0.00 87 1018.6
20260502055332 11 334 0.0 0.0 0.00 3.71 0.00 87 1018.6
20260502054830 11 334 0.0 0.0 0.00 3.71 0.00 87 1018.6
20260502054603 11 334 0.0 0.0 0.00 3.71 0.00 87 1018.6
20260502054101 11 334 0.0 0.0 0.00 3.71 0.00 87 1018.6
20260502053336 11 334 0.0 0.0 0.00 3.71 0.00 87 1018.5
20260502053332 11 334 0.0 0.0 0.00 3.71 0.00 87 1018.4
20260502052330 11 334 0.0 0.0 0.00 3.71 0.00 87 1018.3
20260502051831 11 334 0.0 0.0 0.00 3.71 0.00 87 1018.3
20260502051602 11 334 0.0 0.0 0.00 3.71 0.00 87 1018.3
20260502050830 11 334 0.0 0.0 0.00 3.71 0.00 87 1018.2
20260502050604 11 334 0.0 0.0 0.00 3.71 0.00 87 1018.2
20260502045832 11 334 0.0 0.0 0.00 3.71 3.71 87 1018.2
20260502045326 11 334 0.0 0.0 0.00 3.71 3.71 87 1018.2
20260502044819 12 334 0.0 0.0 0.00 3.71 3.71 87 1018.2
20260502044314 12 334 0.0 0.0 0.00 3.71 3.71 87 1018.2
20260502043808 12 334 0.0 0.0 0.00 3.71 3.71 87 1018.2
20260502043302 12 334 0.0 0.0 0.00 3.71 3.71 87 1018.2
20260502042756 12 334 0.0 0.0 0.00 3.71 3.71 87 1018.4
20260502042522 12 334 0.0 0.0 0.00 3.71 3.71 87 1018.3
20260502041744 12 334 0.0 4.8 0.00 3.71 3.71 87 1018.4
20260502041238 12 334 1.6 4.8 0.00 3.71 3.71 87 1018.3
20260502040732 12 334 0.0 4.8 0.00 3.71 3.71 87 1018.2
20260502040457 12 342 0.0 4.8 0.00 3.71 3.71 87 1018.1
20260502035720 12 342 1.6 4.8 0.00 3.71 3.71 87 1018.1
20260502035214 12 342 0.0 4.8 0.00 3.71 3.71 87 1018.2
20260502034708 12 342 0.0 1.6 0.00 3.71 3.71 87 1018.2
20260502034203 12 342 0.0 6.4 0.00 3.71 3.71 87 1018.2
20260502033656 12 342 1.6 6.4 0.00 3.71 3.71 88 1018.3
20260502033150 12 342 1.6 6.4 0.00 3.71 3.71 88 1018.3
20260502032644 12 344 1.6 9.7 0.00 3.71 3.71 88 1018.3
20260502032408 11 342 3.2 12.9 0.00 3.71 3.71 88 1018.3
20260502031631 12 351 4.8 16.1 0.00 3.71 3.71 88 1018.2
20260502031126 12 326 4.8 16.1 0.00 3.71 3.71 88 1018.0
20260502030620 12 0 3.2 11.3 0.00 3.71 3.71 88 1017.9
20260502030114 12 0 4.8 12.9 0.00 3.71 3.71 88 1017.8
20260502025607 12 339 1.6 9.7 0.00 3.71 3.71 88 1017.7
20260502025332 12 348 3.2 14.5 0.00 3.71 3.71 88 1017.7
20260502024556 12 0 4.8 14.5 0.00 3.71 3.71 88 1017.7
20260502024050 12 0 3.2 14.5 0.00 3.71 3.71 88 1017.6
20260502023544 12 340 4.8 14.5 0.00 3.71 3.71 88 1017.4
20260502023041 12 15 3.2 14.5 0.00 3.71 3.71 88 1017.3
20260502022542 12 12 1.6 14.5 0.00 3.71 3.71 88 1017.1
20260502022039 12 319 3.2 14.5 0.00 3.71 3.71 88 1017.1
20260502021544 12 12 3.2 9.7 0.00 3.71 3.71 88 1016.9
20260502021540 12 355 3.2 9.7 0.00 3.71 3.71 88 1016.9
20260502020539 12 11 3.2 9.7 0.00 3.71 3.71 88 1016.9
20260502020038 12 9 3.2 8.0 0.00 3.71 3.71 88 1016.8
20260502015808 12 355 3.2 14.5 0.00 3.71 3.71 88 1016.7
20260502015308 12 22 4.8 14.5 0.00 3.71 3.71 88 1016.7
20260502014537 12 20 4.8 12.9 0.00 3.71 3.71 88 1016.6
20260502014038 12 328 4.8 12.9 0.00 3.71 3.71 89 1016.5
20260502013533 12 0 4.8 14.5 0.00 3.71 3.71 89 1016.4
20260502013032 12 355 4.8 16.1 0.00 3.71 3.71 89 1016.4
20260502012533 12 5 4.8 16.1 0.00 3.71 3.71 89 1016.3
20260502012032 12 337 4.8 20.9 0.00 3.71 3.71 89 1016.2
20260502011534 12 0 4.8 20.9 0.00 3.71 3.71 89 1016.3
20260502011304 12 343 4.8 19.3 0.00 3.71 3.71 89 1016.3
20260502010535 12 336 4.8 17.7 0.00 3.71 3.71 89 1016.2
20260502010304 12 30 4.8 17.7 0.03 3.71 3.71 89 1016.1
20260502005534 12 344 6.4 17.7 0.03 3.71 3.71 89 1015.9
20260502005032 12 345 6.4 19.3 0.03 3.71 3.71 89 1015.7
20260502004534 12 342 4.8 19.3 0.03 3.71 3.71 89 1015.7
20260502004034 12 0 6.4 19.3 0.05 3.71 3.71 89 1015.7
20260502003531 12 344 8.0 19.3 0.05 3.71 3.71 89 1015.6
20260502003302 12 346 8.0 19.3 0.05 3.71 3.71 89 1015.5
20260502002531 12 9 9.7 27.4 0.05 3.71 3.71 89 1015.4
20260502002032 12 20 9.7 27.4 0.05 3.71 3.71 89 1015.1
20260502001802 12 5 8.0 20.9 0.05 3.71 3.71 89 1015.1
20260502001028 12 0 6.4 16.1 0.05 3.71 3.71 89 1014.9
20260502000529 12 27 6.4 22.5 0.05 3.71 3.71 89 1014.8
20260502000029 12 331 8.0 22.5 0.03 3.68 3.68 90 1014.8
20260501235800 13 12 8.0 25.7 0.05 3.68 3.68 90 1014.7
20260501235030 12 321 8.0 25.7 0.05 3.68 3.68 89 1014.4
20260501234533 13 0 8.0 27.4 0.03 3.66 3.66 90 1014.4
20260501234527 13 340 8.0 20.9 0.05 3.68 3.68 90 1014.2
20260501233525 13 355 9.7 27.4 0.03 3.66 3.66 90 1014.6
20260501233025 13 0 9.7 19.3 0.03 3.66 3.66 89 1014.9
20260501232525 13 19 11.3 27.4 0.03 3.66 3.66 89 1015.0
20260501232257 13 12 11.3 27.4 0.03 3.66 3.66 89 1014.8
20260501231524 13 9 6.4 19.3 0.05 3.66 3.66 90 1014.6
20260501231027 13 346 8.0 24.1 0.05 3.66 3.66 89 1014.3
20260501231022 13 350 6.4 24.1 0.05 3.66 3.66 90 1014.4
20260501230022 13 5 6.4 17.7 0.08 3.66 3.66 90 1014.4
20260501225522 13 344 8.0 22.5 0.05 3.63 3.63 90 1014.0
20260501225025 13 0 8.0 22.5 0.08 3.63 3.63 90 1013.9
20260501224523 13 24 6.4 20.9 0.13 3.63 3.63 90 1014.0
20260501224022 13 344 3.2 14.5 0.18 3.63 3.63 90 1014.2
20260501223523 13 349 4.8 14.5 0.20 3.63 3.63 90 1014.3
20260501223253 13 351 4.8 14.5 0.23 3.63 3.63 90 1014.0
20260501222516 14 345 3.2 12.9 0.23 3.63 3.63 90 1014.0
20260501222242 13 54 4.8 17.7 0.25 3.63 3.63 90 1013.9
20260501221505 13 340 6.4 17.7 0.23 3.61 3.61 90 1013.6
20260501220958 13 331 8.0 20.9 0.25 3.61 3.61 90 1013.5
20260501220452 13 329 8.0 25.7 0.25 3.61 3.61 90 1013.6
20260501215947 14 346 6.4 25.7 0.23 3.58 3.58 90 1014.0
20260501215441 14 0 3.2 19.3 0.20 3.56 3.58 90 1014.2
20260501214936 14 340 3.2 14.5 0.18 3.53 3.56 90 1014.1
20260501214429 14 333 3.2 14.5 0.15 3.51 3.51 90 1013.9
20260501214154 14 342 6.4 29.0 0.10 3.45 3.45 90 1013.6
20260501213650 14 334 8.0 29.0 0.08 3.43 3.43 90 1013.3
20260501212911 14 5 6.4 17.7 0.05 3.40 3.40 90 1013.2
20260501212405 14 331 6.4 17.7 0.05 3.40 3.40 90 1013.6
20260501211901 14 338 4.8 16.1 0.03 3.38 3.38 90 1013.5
20260501211354 14 355 4.8 16.1 0.03 3.38 3.38 90 1013.1
20260501210847 14 9 4.8 14.5 0.00 3.35 3.35 90 1013.2
20260501210342 14 348 4.8 17.7 0.00 3.35 3.35 90 1013.0
20260501205835 14 275 6.4 22.5 0.00 3.35 3.35 90 1012.6
20260501205330 14 337 6.4 27.4 0.00 3.35 3.35 90 1012.2
20260501204823 14 338 4.8 27.4 0.00 3.35 3.35 90 1012.3
20260501204318 14 333 4.8 14.5 0.03 3.35 3.35 90 1012.4
20260501203811 14 338 9.7 27.4 0.03 3.35 3.35 90 1012.5
20260501203305 14 329 11.3 27.4 0.05 3.35 3.35 90 1011.4
20260501203030 15 327 6.4 24.1 0.08 3.35 3.35 90 1011.5
20260501202254 15 335 4.8 19.3 0.10 3.35 3.35 90 1012.0
20260501201746 15 5 8.0 20.9 0.13 3.35 3.35 90 1012.3
20260501201512 15 331 6.4 22.5 0.15 3.35 3.35 90 1011.6
20260501201006 15 5 8.0 22.5 0.15 3.35 3.35 91 1011.1
20260501200229 15 355 9.7 22.5 0.15 3.35 3.35 90 1011.0
20260501195724 15 32 8.0 19.3 0.15 3.35 3.35 90 1010.9
20260501195449 15 22 4.8 14.5 0.15 3.35 3.35 90 1011.5
20260501194711 15 46 4.8 11.3 0.18 3.35 3.35 90 1011.7
20260501194205 15 9 4.8 19.3 0.15 3.33 3.33 90 1012.0
20260501193700 15 13 4.8 19.3 0.15 3.33 3.33 90 1012.1
20260501193153 15 19 4.8 12.9 0.13 3.30 3.30 90 1012.2
20260501192647 15 323 4.8 12.9 0.10 3.28 3.28 90 1012.6
20260501192141 15 355 3.2 16.1 0.08 3.25 3.25 90 1012.9
20260501191636 15 344 3.2 16.1 0.08 3.23 3.23 90 1013.0
20260501191129 15 12 3.2 16.1 0.10 3.20 3.20 90 1013.4
20260501190629 15 42 4.8 16.1 0.18 3.20 3.20 90 1013.8
20260501190130 15 331 6.4 20.9 0.23 3.20 3.20 90 1012.4
20260501185629 15 346 8.0 20.9 0.30 3.20 3.20 90 1011.6
20260501185129 15 347 8.0 20.9 0.36 3.20 3.20 90 1011.5
20260501184629 15 0 9.7 24.1 0.38 3.17 3.17 91 1011.4
20260501184130 15 349 9.7 24.1 0.41 3.17 3.17 90 1011.7
20260501183628 15 44 9.7 27.4 0.41 3.17 3.17 90 1011.5
20260501183130 15 339 9.7 29.0 0.43 3.17 3.17 90 1012.0
20260501182627 15 338 8.0 29.0 0.46 3.17 3.17 90 1011.8
20260501182126 15 18 6.4 17.7 0.46 3.15 3.17 91 1012.8
20260501181626 15 9 4.8 17.7 0.46 3.15 3.15 90 1013.8
20260501181126 15 332 3.2 12.9 0.41 3.10 3.10 90 1014.3
20260501180629 15 315 1.6 8.0 0.33 3.02 3.05 90 1014.8
20260501180625 15 5 0.0 4.8 0.28 2.97 2.97 90 1015.1
20260501175625 15 9 0.0 12.9 0.20 2.90 2.90 90 1015.0
20260501175125 15 9 1.6 12.9 0.15 2.84 2.84 90 1014.5
20260501174622 15 11 4.8 12.9 0.10 2.79 2.79 90 1013.9
20260501174120 15 28 6.4 14.5 0.08 2.77 2.79 90 1013.0
20260501173620 15 0 6.4 16.1 0.05 2.74 2.77 90 1012.5
20260501173350 15 5 6.4 16.1 0.05 2.74 2.74 90 1012.6
20260501172619 15 33 6.4 17.7 0.03 2.72 2.72 90 1012.9
20260501172120 15 5 6.4 17.7 0.00 2.69 2.69 90 1012.4
20260501171621 15 39 4.8 14.5 0.00 2.69 2.69 90 1013.0
20260501171351 15 337 4.8 16.1 0.03 2.69 2.69 90 1013.0
20260501170621 15 355 8.0 19.3 0.03 2.72 2.69 90 1012.9
20260501170120 15 340 6.4 19.3 0.03 2.72 2.69 90 1012.4
20260501165622 15 34 4.8 17.7 0.03 2.72 2.69 90 1012.4
20260501165119 15 5 4.8 16.1 0.03 2.72 2.69 90 1012.3
20260501164619 15 21 4.8 19.3 0.03 2.72 2.69 90 1012.1
20260501164121 15 331 6.4 19.3 0.03 2.72 2.69 90 1012.0
20260501163621 15 16 6.4 19.3 0.05 2.72 2.69 90 1012.1
20260501163120 15 342 4.8 14.5 0.05 2.72 2.69 90 1012.5
20260501162621 15 0 6.4 20.9 0.08 2.72 2.69 91 1012.6
20260501162120 15 311 6.4 20.9 0.08 2.72 2.69 90 1012.4
20260501161614 15 5 4.8 16.1 0.10 2.72 2.69 91 1012.6
20260501161108 15 5 4.8 16.1 0.08 2.69 2.67 91 1012.4
20260501160604 15 355 6.4 16.1 0.08 2.69 2.67 91 1012.0
20260501160335 15 18 8.0 17.7 0.08 2.69 2.67 90 1011.8
20260501155609 15 11 9.7 22.5 0.08 2.69 2.67 90 1011.7
20260501155604 15 19 9.7 22.5 0.08 2.69 2.67 90 1011.6
20260501154834 15 59 8.0 22.5 0.08 2.69 2.67 90 1010.8
20260501154103 15 96 6.4 17.7 0.05 2.67 2.67 90 1010.7
20260501153603 15 33 4.8 17.7 0.05 2.67 2.64 90 1012.5
20260501153335 15 31 4.8 16.1 0.05 2.67 2.64 90 1012.9
20260501152605 15 21 4.8 14.5 0.03 2.64 2.62 90 1013.6
20260501152105 15 10 3.2 14.5 0.03 2.64 2.62 90 1013.9
20260501151838 15 26 3.2 14.5 0.03 2.62 2.59 90 1014.1
20260501151603 15 24 3.2 14.5 0.05 2.62 2.59 90 1013.8
20260501150832 15 29 3.2 14.5 0.08 2.62 2.59 90 1013.9
20260501150332 15 57 3.2 14.5 0.10 2.62 2.59 90 1013.8
20260501145833 15 55 4.8 14.5 0.13 2.62 2.59 90 1013.6
20260501145333 15 344 6.4 16.1 0.15 2.62 2.59 90 1013.7
20260501144603 15 34 6.4 20.9 0.18 2.62 2.59 90 1014.0
20260501144055 15 32 4.8 20.9 0.18 2.62 2.59 90 1013.3
20260501143550 15 331 3.2 9.7 0.20 2.62 2.59 90 1013.8
20260501143317 15 14 3.2 9.7 0.20 2.62 2.59 90 1013.3
20260501143041 15 23 3.2 9.7 0.23 2.62 2.59 90 1013.4
20260501142032 15 34 9.7 24.1 0.25 2.62 2.59 90 1013.6